Location: Freiburg+im+Breisgau
(48.0359°N, 7.8195°E)
Time: 08:36:40
(UTC+01:00)

ISS - Pass Details

Date: 11 January 2018
Orbit: 402 x 406 km, 51.6° (Epoch: 16 January)

Event Time Altitude Azimuth Distance (km) Brightness Sun altitude
Exits shadow 05:42:24 31° 78° (ENE) 743 -2.0 -24.9°
Drops below altitude 10° 05:44:20 10° 94° (E) 1,464 0.1 -24.6°
Sets 05:46:26 0° 99° (E) 2,324 1.4 -24.3°
